Tracking 29487 objects as of 10-Sep-2024
HD Live streaming from Space Station
objects crossing your sky now

SL-8 R/B

Track SL-8 R/B now!
10-day predictions


NORAD ID: 21108
Int'l Code: 1991-009J
Perigee: 1,466.4 km
Apogee: 1,746.0 km
Inclination: 74.1 °
Period: 118.2 minutes
Semi major axis: 7977 km
RCS: 5.6696 m2 (large)
Launch date: February 12, 1991
Source: Commonwealth of Independent States (former USSR) (CIS)
Launch site: PLESETSK MISSILE AND SPACE COMPLEX (PKMTR)

Note: This is a ROCKET BODY
Your satellite tracking list
Your tracking list is empty




NASA's NSSDC Master Catalog

Two Line Element Set (TLE):
1 21108U 91009J   24253.65049368 -.00000040  00000-0 -25132-3 0  9990
2 21108  74.0570 330.9574 0175216 148.9890 332.0151 12.18499486387026
Source of the keplerian elements: AFSPC